Regional Weather Roundup
Issued by NWS

Home | Current Version | Previous Version | Text Only | Print | Product List | Glossary On
Versions: 1 2 3 4 5 6 7 8 9 10 11 12 13 14 15 16 17 18 19 20 21 22 23 24 25 26 27 28 29 30 31 32 33 34 35 36 37 38 39 40 41 42 43 44 45 46 47 48 49 50
000
ASUS44 KBMX 290010
RWRAL

ALABAMA REGIONAL WEATHER ROUNDUP
NATIONAL WEATHER SERVICE BIRMINGHAM AL
700 PM CDT SAT MAR 28 2015

NOTE: "FAIR" INDICATES FEW OR NO CLOUDS BELOW 12,000 FEET
WITH NO SIGNIFICANT WEATHER AND/OR OBSTRUCTIONS TO VISIBILITY.

THE REMARK "TC" DENOTES TEMPERATURE IN DEGREES CELSIUS.

ALZ001>011-014-016>018-020-290100-
NORTH ALABAMA

CITY           SKY/WX    TMP DP  RH WIND       PRES   REMARKS
MUSCLE SHOALS  MOCLDY    44  20  38 NW6       30.26R
6HR MIN TEMP:  44; 6HR MAX TEMP:  48;

HUNTSVILLE     PTCLDY    45  21  38 N6        30.24R
6HR MIN TEMP:  45; 6HR MAX TEMP:  51;

DECATUR        MOCLDY    44  21  40 CALM      30.25R
6HR MIN TEMP:  44; 6HR MAX TEMP:  49;

HALEYVILLE     CLOUDY    42  21  43 CALM      30.27R
6HR MIN TEMP:  42; 6HR MAX TEMP:  45;

GADSDEN        MOCLDY    45  16  31 NW5       30.22S
6HR MIN TEMP:  45; 6HR MAX TEMP:  50;

$$

ALZ012-013-022-023-030>036-040>044-290100-
WEST CENTRAL ALABAMA

CITY           SKY/WX    TMP DP  RH WIND       PRES   REMARKS
TUSCALOOSA     CLOUDY    45  29  53 W6        30.27R
6HR MIN TEMP:  45; 6HR MAX TEMP:  50; 6HR PCP: TRACE;

$$

ALZ015-024>027-033>036-040>044-290100-
CENTRAL ALABAMA

CITY           SKY/WX    TMP DP  RH WIND       PRES   REMARKS
BIRMINGHAM     CLOUDY    48  17  29 N7        30.25R
6HR MIN TEMP:  47; 6HR MAX TEMP:  51;

MONTGOMERY     CLOUDY    49  28  44 W6        30.24R
6HR MIN TEMP:  49; 6HR MAX TEMP:  56;

SHELBY CO ARPT CLOUDY    48  21  34 NW7       30.23S
6HR MIN TEMP:  48; 6HR MAX TEMP:  54;

MAXWELL AFB    CLOUDY    49  30  48 W3        30.23R
6HR MIN TEMP:  49; 6HR MAX TEMP:  55;

GREENVILLE     FAIR      49  26  41 NW7       30.23R
6HR MIN TEMP:  49; 6HR MAX TEMP:  58;

$$

ALZ019-021-028-029-037-038-045>048-290100-
EAST CENTRAL ALABAMA

CITY           SKY/WX    TMP DP  RH WIND       PRES   REMARKS
ANNISTON       MOCLDY    48  16  27 N6        30.23R
6HR MIN TEMP:  47; 6HR MAX TEMP:  53;

ALEXANDER CITY MOCLDY    52  11  19 N9        30.21F
6HR MIN TEMP:  52; 6HR MAX TEMP:  56;

AUBURN         MOCLDY    48  18  29 NW8       30.22S
6HR MIN TEMP:  48; 6HR MAX TEMP:  54;

$$

ALZ051>064-290100-
SOUTHWEST ALABAMA

CITY           SKY/WX    TMP DP  RH WIND       PRES   REMARKS
MOBILE         CLEAR     57  42  57 SE7       30.21R
6HR MIN TEMP:  57; 6HR MAX TEMP:  66;

BROOKLEY FIELD CLEAR     60  37  42 N7        30.21S
6HR MIN TEMP:  58; 6HR MAX TEMP:  64;

EVERGREEN      CLEAR     50  28  42 N6        30.24R
6HR MIN TEMP:  50; 6HR MAX TEMP:  60;

$$

ALZ049-050-065>069-290100-
SOUTHEAST ALABAMA

CITY           SKY/WX    TMP DP  RH WIND       PRES   REMARKS
DOTHAN         MOCLDY    52  28  39 NW9       30.24R
6HR MIN TEMP:  52; 6HR MAX TEMP:  61;

OZARK          MOCLDY    52  24  32 NW9       30.21R
6HR MIN TEMP:  52; 6HR MAX TEMP:  61;

TROY           CLOUDY    50  27  40 NW8       30.23R
6HR MIN TEMP:  50; 6HR MAX TEMP:  58;

EUFAULA        MOCLDY    52  24  33 W3        30.19R
6HR MIN TEMP:  52; 6HR MAX TEMP:  60;

$$


USA.gov is the U.S. government's official web portal to all federal, state and local government web resources and services.